• Em Portugal
  • Lista de países
  • Para 7 dias
  • Temperatura da água
  • Mapas de satélite
  • Mapa do tempo
  • Widgets de tempo
  • user-avatar
    Iniciar Sessão

    Previsão horária em Natal

    Hoje, 18 Agosto, Sexta-feira

    Tempo Temperatura Precipitação Vento Pressão Humidade
    00:00 +23°C° 0,2 mm 5 m/s 760 mmHg 94%
    01:00 +23°C° 0,2 mm 5 m/s 760 mmHg 95%
    02:00 +23°C° 0,2 mm 5 m/s 760 mmHg 95%
    03:00 +23°C° 0,2 mm 5 m/s 759 mmHg 96%
    04:00 +23°C° 0 mm 5 m/s 759 mmHg 96%
    05:00 +23°C° 0,2 mm 5 m/s 759 mmHg 96%
    06:00 +23°C° 0,2 mm 5 m/s 759 mmHg 96%
    07:00 +23°C° 0,2 mm 5 m/s 760 mmHg 96%
    08:00 +26°C° 0,2 mm 5 m/s 760 mmHg 87%
    09:00 +28°C° 0,2 mm 6 m/s 760 mmHg 79%
    10:00 +30°C° 0,2 mm 6 m/s 760 mmHg 70%
    11:00 +30°C° 0,1 mm 7 m/s 760 mmHg 67%
    12:00 +32°C° 0,1 mm 7 m/s 759 mmHg 63%
    13:00 +33°C° 0,1 mm 7 m/s 759 mmHg 59%
    14:00 +33°C° 0 mm 7 m/s 759 mmHg 60%
    15:00 +32°C° 0 mm 7 m/s 759 mmHg 61%
    16:00 +32°C° 0 mm 7 m/s 758 mmHg 61%
    17:00 +30°C° 0 mm 7 m/s 758 mmHg 68%
    18:00 +28°C° 0 mm 6 m/s 759 mmHg 75%
    19:00 +27°C° 0 mm 6 m/s 759 mmHg 81%
    20:00 +26°C° 0,1 mm 6 m/s 759 mmHg 84%
    21:00 +26°C° 0,1 mm 6 m/s 760 mmHg 87%
    22:00 +24°C° 0,1 mm 6 m/s 760 mmHg 90%
    23:00 +24°C° 0,1 mm 6 m/s 760 mmHg 91%

    Amanhã, 19 Agosto, Sábado

    Tempo Temperatura Precipitação Vento Pressão Humidade
    00:00 +24°C° 0,1 mm 6 m/s 760 mmHg 92%
    01:00 +23°C° 0,1 mm 5 m/s 760 mmHg 93%
    02:00 +23°C° 0,2 mm 6 m/s 760 mmHg 94%
    03:00 +23°C° 0,2 mm 6 m/s 759 mmHg 94%
    04:00 +23°C° 0,2 mm 6 m/s 759 mmHg 94%
    05:00 +23°C° 0,1 mm 6 m/s 759 mmHg 93%
    06:00 +23°C° 0,1 mm 6 m/s 760 mmHg 93%
    07:00 +23°C° 0,1 mm 7 m/s 760 mmHg 92%
    08:00 +26°C° 0,1 mm 7 m/s 760 mmHg 84%
    09:00 +28°C° 0,1 mm 7 m/s 761 mmHg 75%
    10:00 +31°C° 0,1 mm 8 m/s 761 mmHg 67%
    11:00 +31°C° 0,1 mm 8 m/s 761 mmHg 66%
    12:00 +31°C° 0,1 mm 8 m/s 760 mmHg 64%
    13:00 +31°C° 0,1 mm 8 m/s 760 mmHg 63%
    14:00 +31°C° 0 mm 8 m/s 760 mmHg 62%
    15:00 +31°C° 0 mm 8 m/s 759 mmHg 61%
    16:00 +31°C° 0 mm 8 m/s 759 mmHg 60%
    17:00 +29°C° 0 mm 7 m/s 759 mmHg 65%
    18:00 +27°C° 0 mm 6 m/s 759 mmHg 71%
    19:00 +26°C° 0 mm 6 m/s 759 mmHg 77%
    20:00 +24°C° 0 mm 6 m/s 760 mmHg 79%
    21:00 +25°C° 0 mm 5 m/s 760 mmHg 82%
    22:00 +23°C° 0 mm 5 m/s 761 mmHg 84%
    23:00 +23°C° 0 mm 5 m/s 761 mmHg 86%

    Depois de amanhã, 20 Agosto, Domingo

    Tempo Temperatura Precipitação Vento Pressão Humidade
    00:00 +23°C° 0 mm 5 m/s 761 mmHg 87%
    01:00 +22°C° 0 mm 5 m/s 760 mmHg 89%
    02:00 +22°C° 0,1 mm 5 m/s 760 mmHg 90%
    03:00 +22°C° 0,1 mm 5 m/s 760 mmHg 92%
    04:00 +22°C° 0,1 mm 5 m/s 759 mmHg 93%
    05:00 +22°C° 0,1 mm 5 m/s 760 mmHg 92%
    06:00 +22°C° 0,1 mm 5 m/s 760 mmHg 92%
    07:00 +22°C° 0,1 mm 5 m/s 760 mmHg 92%
    08:00 +24°C° 0,2 mm 6 m/s 761 mmHg 85%
    09:00 +27°C° 0,2 mm 6 m/s 761 mmHg 78%
    10:00 +29°C° 0,2 mm 7 m/s 762 mmHg 72%
    11:00 +30°C° 0,1 mm 7 m/s 761 mmHg 67%
    12:00 +32°C° 0,1 mm 7 m/s 761 mmHg 62%
    13:00 +33°C° 0,1 mm 7 m/s 761 mmHg 57%
    14:00 +32°C° 0,1 mm 7 m/s 760 mmHg 59%
    15:00 +32°C° 0,1 mm 7 m/s 760 mmHg 61%
    16:00 +30°C° 0,1 mm 7 m/s 759 mmHg 62%
    17:00 +29°C° 0 mm 7 m/s 760 mmHg 68%
    18:00 +28°C° 0 mm 6 m/s 760 mmHg 74%
    19:00 +26°C° 0 mm 6 m/s 760 mmHg 80%
    20:00 +26°C° 0 mm 5 m/s 761 mmHg 83%
    21:00 +25°C° 0 mm 5 m/s 761 mmHg 86%
    22:00 +23°C° 0 mm 5 m/s 762 mmHg 89%
    23:00 +23°C° 0 mm 5 m/s 762 mmHg 90%

    21 Agosto, Segunda-feira

    Tempo Temperatura Precipitação Vento Pressão Humidade
    00:00 +23°C° 0 mm 5 m/s 761 mmHg 91%
    01:00 +23°C° 0 mm 4 m/s 761 mmHg 92%
    02:00 +22°C° 0,1 mm 4 m/s 761 mmHg 93%
    03:00 +22°C° 0,1 mm 4 m/s 760 mmHg 94%
    04:00 +22°C° 0,1 mm 4 m/s 760 mmHg 95%
    05:00 +22°C° 0,1 mm 4 m/s 760 mmHg 95%
    06:00 +22°C° 0,1 mm 4 m/s 761 mmHg 95%
    07:00 +22°C° 0,1 mm 4 m/s 761 mmHg 95%
    08:00 +25°C° 0,1 mm 5 m/s 761 mmHg 86%
    09:00 +28°C° 0,1 mm 5 m/s 762 mmHg 77%
    10:00 +30°C° 0,1 mm 6 m/s 762 mmHg 68%
    11:00 +32°C° 0,1 mm 6 m/s 762 mmHg 65%
    12:00 +32°C° 0,1 mm 7 m/s 761 mmHg 61%
    13:00 +33°C° 0,1 mm 7 m/s 761 mmHg 58%
    14:00 +33°C° 0 mm 7 m/s 760 mmHg 59%
    15:00 +32°C° 0 mm 7 m/s 760 mmHg 61%
    16:00 +32°C° 0 mm 8 m/s 759 mmHg 62%
    17:00 +29°C° 0 mm 7 m/s 760 mmHg 68%
    18:00 +28°C° 0 mm 7 m/s 760 mmHg 74%
    19:00 +26°C° 0 mm 6 m/s 760 mmHg 80%
    20:00 +26°C° 0 mm 6 m/s 761 mmHg 83%
    21:00 +24°C° 0 mm 6 m/s 761 mmHg 85%
    22:00 +24°C° 0 mm 6 m/s 762 mmHg 88%
    23:00 +23°C° 0 mm 6 m/s 761 mmHg 89%

    22 Agosto, Terça-feira

    Tempo Temperatura Precipitação Vento Pressão Humidade
    00:00 +23°C° 0 mm 6 m/s 761 mmHg 91%
    01:00 +23°C° 0 mm 6 m/s 761 mmHg 93%
    02:00 +23°C° 0,1 mm 6 m/s 760 mmHg 93%
    03:00 +23°C° 0,1 mm 6 m/s 760 mmHg 94%
    04:00 +22°C° 0,1 mm 6 m/s 760 mmHg 95%
    05:00 +22°C° 0,1 mm 6 m/s 760 mmHg 94%
    06:00 +22°C° 0,1 mm 6 m/s 760 mmHg 94%
    07:00 +22°C° 0,1 mm 6 m/s 761 mmHg 94%
    08:00 +26°C° 0 mm 7 m/s 761 mmHg 84%
    09:00 +28°C° 0 mm 7 m/s 761 mmHg 75%
    10:00 +30°C° 0 mm 7 m/s 761 mmHg 65%
    11:00 +32°C° 0 mm 8 m/s 761 mmHg 60%
    12:00 +33°C° 0 mm 8 m/s 760 mmHg 56%
    13:00 +34°C° 0 mm 8 m/s 760 mmHg 51%
    14:00 +33°C° 0 mm 8 m/s 759 mmHg 53%
    15:00 +33°C° 0 mm 8 m/s 759 mmHg 54%
    16:00 +32°C° 0 mm 9 m/s 758 mmHg 56%
    17:00 +31°C° 0 mm 8 m/s 759 mmHg 63%
    18:00 +28°C° 0 mm 8 m/s 759 mmHg 70%
    19:00 +27°C° 0 mm 7 m/s 760 mmHg 77%
    20:00 +26°C° 0 mm 7 m/s 760 mmHg 80%
    21:00 +24°C° 0 mm 7 m/s 760 mmHg 83%
    22:00 +24°C° 0 mm 7 m/s 761 mmHg 86%
    23:00 +23°C° 0 mm 7 m/s 760 mmHg 88%

    23 Agosto, Quarta-feira

    Tempo Temperatura Precipitação Vento Pressão Humidade
    00:00 +23°C° 0 mm 6 m/s 760 mmHg 90%
    01:00 +22°C° 0 mm 6 m/s 760 mmHg 92%
    02:00 +22°C° 0,2 mm 6 m/s 759 mmHg 92%
    03:00 +22°C° 0,2 mm 6 m/s 759 mmHg 92%
    04:00 +22°C° 0,2 mm 5 m/s 759 mmHg 92%
    05:00 +22°C° 0,5 mm 5 m/s 759 mmHg 91%
    06:00 +23°C° 0,5 mm 5 m/s 759 mmHg 91%
    07:00 +23°C° 0,5 mm 5 m/s 760 mmHg 91%
    08:00 +25°C° 0,6 mm 5 m/s 760 mmHg 85%
    09:00 +27°C° 0,6 mm 6 m/s 760 mmHg 80%
    10:00 +28°C° 0,6 mm 6 m/s 761 mmHg 74%
    11:00 +29°C° 0,4 mm 7 m/s 760 mmHg 72%
    12:00 +29°C° 0,4 mm 7 m/s 760 mmHg 69%
    13:00 +30°C° 0,4 mm 7 m/s 759 mmHg 67%
    14:00 +30°C° 0,1 mm 7 m/s 759 mmHg 66%
    15:00 +30°C° 0,1 mm 7 m/s 759 mmHg 65%
    16:00 +31°C° 0,1 mm 8 m/s 758 mmHg 65%
    17:00 +29°C° 0,1 mm 7 m/s 759 mmHg 70%
    18:00 +27°C° 0,1 mm 7 m/s 759 mmHg 76%
    19:00 +26°C° 0,1 mm 7 m/s 759 mmHg 81%
    20:00 +26°C° 0,1 mm 6 m/s 760 mmHg 83%
    21:00 +24°C° 0,1 mm 6 m/s 760 mmHg 85%
    22:00 +24°C° 0,1 mm 6 m/s 760 mmHg 87%
    23:00 +23°C° 0,1 mm 6 m/s 760 mmHg 89%
    Mostrar mais